User: anonymous   Login
Location: Unspecified
(0.0000°N, 0.0000°E)
Time: 22:11:41
(UTC+00:00)
Language:

NOAA 6 - Orbit

View from above orbital plane
View from above orbital plane
View from above satellite
View from above satellite

Ground track
Ground track

The orbit data is extracted from the following two-line orbital elements,

1 11416U 79057A   17080.93036976 +.00000064 +00000-0 +39101-4 0  9998
2 11416 098.5731 069.6272 0011027 141.3381 218.8595 14.33405696967362
Epoch (UTC): 21 March 2017 22:19:43
Eccentricity: 0.0011027
inclination: 98.5731°
perigee height: 772 km
apogee height: 788 km
right ascension of ascending node: 69.6272°
argument of perigee: 141.3381°
revolutions per day: 14.33405696
mean anomaly at epoch: 218.8595°
orbit number at epoch: 96736

The dashed part of the orbit path shows where the satellite is in the earth's shadow,  

DLR